Regional Weather Roundup
Issued by NWS

Home | Current Version | Previous Version | Text Only | Print | Product List | Glossary On
Versions: 1 2 3 4 5 6 7 8 9 10 11 12 13 14 15 16 17 18 19 20 21 22 23 24 25 26 27
000
ASUS44 KJAN 232010
RWRMS

MISSISSIPPI HOURLY WEATHER ROUNDUP
NATIONAL WEATHER SERVICE JACKSON MS
300 PM CDT TUE MAY 23 2017

NOTE: "FAIR: INDICATES FEW OR NO CLOUDS BELOW 12,000 FEET WITH NO
SIGNIFICANT WEATHER AND/OR OBSTRUCTIONS TO VISIBILITY.

MSZ001>002-007>008-010>013-018>021-025>028-034>036-232100-
NORTHWEST MISSISSIPPI

CITY           SKY/WX    TMP DP  RH WIND       PRES   REMARKS
CLARKSDALE       N/A     79  59  50 MISG      29.74F
CLEVELAND      FAIR      75  60  59 W5        29.75F
GREENWOOD      CLOUDY    72  63  73 NW6       29.75F
GREENVILLE     CLOUDY    74  59  59 W5        29.76F
OLIVE BRANCH   PTSUNNY  N/A N/A N/A SW6       29.72F
OXFORD         FAIR      77  55  47 W5        29.75F
TUNICA         PTCLDY    75  55  50 W10       29.75F
WINONA         MOCLDY    72  65  79 MISG      29.75S
$$

MSZ003>006-009-014>017-022>024-029>033-037>039-232100-
NORTHEAST MISSISSIPPI

CITY           SKY/WX    TMP DP  RH WIND       PRES   REMARKS
COLUMBUS AFB   NOT AVBL
CORINTH        CLOUDY    77  57  50 NW7       29.71F
STARKVILLE     LGT RAIN  70  66  88 CALM      29.74F
TUPELO         CLOUDY    78  59  51 VRB6      29.72F
$$

MSZ040-058-232100-
CENTRAL MISSISSIPPI

CITY           SKY/WX    TMP DP  RH WIND       PRES   REMARKS
JACKSON INTL   CLOUDY    74  64  71 W8        29.77F
JACKSON HAWKNS PTSUNNY   72  64  76 NW10      29.78F
MADISON        FAIR      70  63  78 NW6       29.77F
MERIDIAN KEY   CLOUDY    78  71  79 N7        29.72F
MERIDIAN NAS   LGT RAIN  74  68  81 VRB3      29.72F
VICKSBURG VKS  PTCLDY    73  64  73 NW6       29.76F
$$

MSZ059>079-232100-
SOUTH MISSISSIPPI

CITY           SKY/WX    TMP DP  RH WIND       PRES   REMARKS
COLUMBIA       MOCLDY    77  68  73 W7        29.78F
HATTIESBURG    PTSUNNY   78  68  71 NW13      29.74S
LAUREL         CLOUDY    76  73  90 W7        29.74F
MCCOMB         MOSUNNY   79  66  64 NW9       29.77F
NATCHEZ        CLOUDY    73  65  75 NW7       29.80F
PINE BELT      NOT AVBL
$$

MSZ080>082-232100-
COASTAL MISSISSIPPI

CITY           SKY/WX    TMP DP  RH WIND       PRES   REMARKS
BAY ST LOUIS   PTSUNNY   82  70  65 W9G17     29.74S
BILOXI         NOT AVBL
PASCAGOULA     MOSUNNY   85  69  58 SW12G21   29.71F
GULFPORT       MOSUNNY   85  67  54 W14G21    29.71F
$$

LAZ007>009-015>016-023>026-232100-
NORTHEAST LOUISIANA

CITY           SKY/WX    TMP DP  RH WIND       PRES   REMARKS
BASTROP        FAIR      75  61  62 W5        29.79F
TALLULAH/VBURG CLOUDY    73  63  70 CALM      29.78F
VIDALIA        CLOUDY    73  64  72 N3        29.78F
$$




USA.gov is the U.S. government's official web portal to all federal, state and local government web resources and services.